Location: Aciu?a
(46.2833°N, 22.4500°E)
Time: 06:05:40
(UTC+00:00)

Tiangong - Pass Details

Date: 25 October 2021
Orbit: 380 x 384 km, 41.5° (Epoch: 04 December)

Event Time Altitude Azimuth Distance (km) Brightness Sun altitude
Rises 17:25:28 0° 266° (W) 2,274 6.5 -21.2°
Reaches altitude 10° 17:27:47 10° 251° (WSW) 1,416 4.9 -21.6°
Enters shadow 17:30:04 23° 207° (SSW) 866 3.0 -22.0°
